"TOA5","MOW","CPU:UNC_MeetingWaters","DataHourly"
"TIMESTAMP","SondeTempC","SpCond","DOSat","DOmg","pH","Turb","BattVolt_Min"
"TS","","","","","","",""
"","Smp","Smp","Smp","Smp","Smp","Smp","Min"
"2009-08-01 04:00:00",23.0300006866,0.0230000000447,89.0999984741,-39.9000015259,7.76999998093,38.7999992371,12.8100004196
"2009-08-01 05:00:00",23.0100002289,0.00600000005215,84.3000030518,-50.5,7.94999980927,16.5,12.7899999619
"2009-08-01 06:00:00",22.6399993896,0.00600000005215,81.1999969482,-40.2000007629,7.78000020981,6.19999980927,12.7700004578
"2009-08-01 07:00:00",22.5599994659,0.00600000005215,100.099998474,-33.0,7.65000009537,-5.59999990463,12.75
"2009-08-01 08:00:00",22.5599994659,0.00600000005215,100.300003052,-23.8999996185,7.5,-5.19999980927,12.6999998093
"2009-08-01 09:00:00",22.5799999237,0.00600000005215,100.199996948,-16.0,7.36000013351,-5.30000019073,12.7100000381
"2009-08-01 10:00:00",22.6100006104,0.00600000005215,100.199996948,-10.5,7.26000022888,-3.79999995232,12.7100000381
"2009-08-01 11:00:00",22.8500003815,0.00600000005215,100.199996948,-6.5,7.19000005722,-5.69999980927,12.7299995422
"2009-08-01 12:00:00",22.9599990845,0.00600000005215,100.199996948,-2.0,7.11999988556,8.80000019073,13.0399999619
"2009-08-01 13:00:00",23.2099990845,0.00600000005215,99.9000015259,0.40000000596,7.07999992371,-5.80000019073,13.1300001144
"2009-08-01 14:00:00",23.7099990845,0.00499999988824,100.0,0.699999988079,7.07000017166,-5.90000009537,13.3400001526
"2009-08-01 15:00:00",23.9200000763,0.00499999988824,99.8000030518,4.59999990463,7.0,-2.09999990463,13.9600000381
"2009-08-01 16:00:00",24.3199996948,0.00400000018999,99.6999969482,6.30000019073,6.96999979019,-5.30000019073,13.9099998474
"2009-08-01 17:00:00",25.4599990845,0.00400000018999,99.0,8.30000019073,6.94000005722,-2.90000009537,13.8999996185
"2009-08-01 18:00:00",26.1399993896,0.00300000002608,98.5999984741,18.2000007629,6.76999998093,-1.79999995232,13.8199996948
"2009-08-01 19:00:00",25.9400005341,0.00200000009499,98.8000030518,17.3999996185,6.78000020981,-5.59999990463,13.8100004196
"2009-08-01 20:00:00",25.6000003815,0.00200000009499,98.8000030518,13.8999996185,6.84000015259,-5.30000019073,13.7899999619
"2009-08-01 21:00:00",25.3199996948,0.00200000009499,99.1999969482,13.3000001907,6.84999990463,-5.40000009537,13.1099996567
"2009-08-01 22:00:00",25.1700000763,0.00200000009499,99.0999984741,10.6000003815,6.90000009537,-6.59999990463,13.0600004196
"2009-08-01 23:00:00",24.8199996948,0.00200000009499,99.3000030518,8.60000038147,6.92999982834,-7.0,12.9499998093
"2009-08-02 00:00:00",24.2199993134,0.00200000009499,99.6999969482,6.80000019073,6.96000003815,-7.09999990463,12.9200000763
"2009-08-02 01:00:00",23.8299999237,0.00200000009499,99.8000030518,4.19999980927,7.01000022888,-7.30000019073,12.9099998474
"2009-08-02 02:00:00",23.6399993896,0.00200000009499,99.9000015259,2.0,7.05000019073,-7.30000019073,12.8900003433
"2009-08-02 03:00:00",23.4200000763,0.00200000009499,100.0,0.300000011921,7.07999992371,-7.30000019073,12.8699998856
"2009-08-02 04:00:00",23.2700004578,0.00200000009499,100.0,-1.20000004768,7.09999990463,-7.30000019073,12.8500003815
"2009-08-02 05:00:00",23.1200008392,0.00200000009499,100.0,-2.5,7.11999988556,-7.0,12.8299999237
"2009-08-02 06:00:00",23.0799999237,0.00200000009499,99.6999969482,-3.40000009537,7.13999986649,-7.30000019073,12.8000001907
"2009-08-02 07:00:00",23.0,0.00200000009499,99.6999969482,-3.90000009537,7.15000009537,-7.30000019073,12.779999733
"2009-08-02 08:00:00",22.9200000763,0.00200000009499,99.8000030518,-4.80000019073,7.15999984741,-7.30000019073,12.7600002289
"2009-08-02 09:00:00",22.8799991608,0.00200000009499,99.9000015259,-5.59999990463,7.17999982834,-7.30000019073,12.7399997711
"2009-08-02 10:00:00",22.9400005341,0.00200000009499,99.9000015259,-6.30000019073,7.19000005722,-7.30000019073,12.720000267
"2009-08-02 11:00:00",23.1200008392,0.00200000009499,99.6999969482,-7.09999990463,7.19999980927,-7.19999980927,12.7299995422
"2009-08-02 12:00:00",23.3199996948,0.00200000009499,99.4000015259,-6.40000009537,7.19000005722,-7.19999980927,12.8400001526
"2009-08-02 13:00:00",23.3999996185,0.00200000009499,99.5999984741,-5.80000019073,7.17999982834,-7.30000019073,12.9399995804
"2009-08-02 14:00:00",23.7399997711,0.197999998927,93.1999969482,-41.4000015259,7.80000019073,133.0,12.9799995422
"2009-08-02 15:00:00",23.4300003052,0.105999998748,90.9000015259,-31.8999996185,7.63000011444,128.199996948,13.2700004578
"2009-08-02 16:00:00",23.8400001526,0.00499999988824,86.1999969482,-38.0,7.73999977112,127.0,13.3800001144
"2009-08-02 17:00:00",24.1200008392,0.00499999988824,86.6999969482,-19.7000007629,7.42000007629,85.5,13.4399995804
"2009-08-02 18:00:00",24.1900005341,0.00499999988824,89.5999984741,-10.1000003815,7.26000022888,40.5,13.970000267
"2009-08-02 19:00:00",24.3600006104,0.00499999988824,88.3000030518,-4.0,7.15000009537,33.5,13.9499998093
"2009-08-02 20:00:00",24.4099998474,0.00499999988824,99.0999984741,-0.20000000298,7.09000015259,-4.5,13.9200000763
"2009-08-02 21:00:00",24.2199993134,0.00499999988824,99.3000030518,0.0,7.07999992371,-3.40000009537,13.9099998474
"2009-08-02 22:00:00",24.1299991608,0.00499999988824,99.3000030518,0.20000000298,7.07999992371,-6.0,13.3599996567
"2009-08-02 23:00:00",23.8600006104,0.00400000018999,99.5,-0.699999988079,7.09000015259,-5.59999990463,12.9899997711
"2009-08-03 00:00:00",23.5599994659,0.00400000018999,99.6999969482,-1.70000004768,7.11000013351,-5.30000019073,12.9200000763
"2009-08-03 01:00:00",23.2600002289,0.00400000018999,100.0,-3.09999990463,7.13999986649,-3.0,12.8999996185
"2009-08-03 02:00:00",23.0699996948,0.00400000018999,100.0,-4.5,7.15999984741,-5.0,12.8900003433
"2009-08-03 03:00:00",22.8299999237,0.00400000018999,100.0,-4.90000009537,7.17000007629,-3.70000004768,12.8699998856
"2009-08-03 04:00:00",22.5799999237,0.00400000018999,100.0,-6.09999990463,7.19000005722,-3.29999995232,12.8500003815
"2009-08-03 05:00:00",22.3199996948,0.00400000018999,100.199996948,-6.30000019073,7.19000005722,-2.40000009537,12.8299999237
"2009-08-03 06:00:00",22.1399993896,0.00400000018999,100.199996948,-6.30000019073,7.19000005722,-3.09999990463,12.8100004196
"2009-08-03 07:00:00",22.0300006866,0.00400000018999,100.099998474,-8.19999980927,7.21999979019,-2.79999995232,12.7600002289
"2009-08-03 08:00:00",21.9799995422,0.00400000018999,100.0,-9.30000019073,7.23999977112,-1.60000002384,12.7600002289
"2009-08-03 09:00:00",22.0799999237,0.00400000018999,91.5999984741,-9.10000038147,7.23999977112,1433.0,12.7399997711
"2009-08-03 10:00:00",22.2199993134,0.00400000018999,100.099998474,-9.30000019073,7.23999977112,-4.59999990463,12.7299995422
"2009-08-03 11:00:00",22.3400001526,0.00400000018999,100.0,-9.5,7.25,-4.90000009537,12.7299995422
"2009-08-03 12:00:00",22.5900001526,0.00400000018999,100.0,-9.60000038147,7.25,-4.90000009537,12.8500003815
"2009-08-03 13:00:00",22.7399997711,0.00400000018999,99.6999969482,-6.90000009537,7.19999980927,0.600000023842,12.9799995422
"2009-08-03 14:00:00",23.9400005341,0.00400000018999,99.5999984741,-9.89999961853,7.25,-6.59999990463,13.3800001144
"2009-08-03 15:00:00",25.9200000763,0.00300000002608,97.5999984741,-0.20000000298,7.09000015259,-7.0,13.779999733
"2009-08-03 16:00:00",27.7199993134,0.0010000000475,97.0,6.69999980927,6.96999979019,-7.19999980927,13.0100002289
"2009-08-03 17:00:00",27.9699993134,0.0,96.5999984741,8.69999980927,6.92999982834,-7.40000009537,12.9899997711
"2009-08-03 18:00:00",26.7199993134,0.0,98.0,9.5,6.92000007629,-7.5,12.9899997711
"2009-08-03 19:00:00",26.4500007629,0.0,97.9000015259,10.8000001907,6.90000009537,-7.5,13.029999733
"2009-08-03 20:00:00",26.3099994659,0.0,98.4000015259,10.3999996185,6.90000009537,-7.40000009537,13.0399999619
"2009-08-03 21:00:00",26.2299995422,0.0,97.9000015259,8.69999980927,6.92999982834,-7.5,13.0900001526
"2009-08-03 22:00:00",25.9899997711,0.0,98.8000030518,4.80000019073,7.0,-7.40000009537,13.1000003815
"2009-08-03 23:00:00",25.2700004578,0.0,99.5,2.79999995232,7.03000020981,-7.40000009537,12.9600000381
"2009-08-04 00:00:00",24.2700004578,0.0,100.199996948,-0.5,7.09000015259,-7.30000019073,12.8999996185
"2009-08-04 01:00:00",23.7099990845,0.0,100.300003052,-2.5,7.13000011444,-7.30000019073,12.8800001144
"2009-08-04 02:00:00",23.2999992371,0.0010000000475,100.5,-3.70000004768,7.15000009537,-7.30000019073,12.8599996567
"2009-08-04 03:00:00",22.8600006104,0.0010000000475,100.699996948,-6.59999990463,7.19999980927,-7.19999980927,12.8400001526
"2009-08-04 04:00:00",22.5200004578,0.0010000000475,100.699996948,-10.3000001907,7.26000022888,-7.19999980927,12.8100004196
"2009-08-04 05:00:00",22.0599994659,0.0010000000475,100.699996948,-12.1000003815,7.28999996185,-7.09999990463,12.779999733
"2009-08-04 06:00:00",21.6299991608,0.0010000000475,101.099998474,-11.8000001907,7.28999996185,-7.19999980927,12.75
"2009-08-04 07:00:00",20.9500007629,0.0010000000475,101.099998474,-14.1999998093,7.32999992371,-7.09999990463,12.7299995422
"2009-08-04 08:00:00",20.9099998474,0.0010000000475,101.099998474,-15.8000001907,7.36000013351,-7.09999990463,12.6999998093
"2009-08-04 09:00:00",20.5900001526,0.0010000000475,101.0,-16.7000007629,7.36999988556,-7.09999990463,12.6800003052
"2009-08-04 10:00:00",20.5799999237,0.0010000000475,101.0,-18.3999996185,7.40000009537,-7.0,12.6899995804
"2009-08-04 11:00:00",20.8899993896,0.0010000000475,100.599998474,-22.0,7.46000003815,-7.09999990463,12.6999998093
"2009-08-04 12:00:00",21.7600002289,0.0010000000475,100.599998474,-23.2000007629,7.48999977112,-7.0,12.7700004578
"2009-08-04 13:00:00",23.0900001526,0.0010000000475,99.9000015259,-21.2999992371,7.44999980927,-7.19999980927,12.9899997711
"2009-08-04 14:00:00",24.3899993896,0.0010000000475,98.6999969482,-11.6999998093,7.28000020981,-7.30000019073,13.3999996185
"2009-08-04 15:00:00",26.8400001526,0.0,96.9000015259,-13.3000001907,7.30999994278,-7.5,13.5799999237
"2009-08-04 16:00:00",28.7399997711,0.0,94.9000015259,1.70000004768,7.05000019073,-7.69999980927,13.1000003815
"2009-08-04 17:00:00",29.3299999237,0.0,92.5999984741,16.7999992371,6.80000019073,-7.69999980927,13.0
"2009-08-04 18:00:00",27.1499996185,0.0,94.8000030518,19.2999992371,6.75,-7.59999990463,12.9799995422
"2009-08-04 19:00:00",24.9400005341,0.0010000000475,99.9000015259,8.80000019073,6.92999982834,17.3999996185,13.0
"2009-08-04 20:00:00",26.9400005341,0.0860000029206,93.5,-56.2000007629,8.03999996185,954.0,13.1199998856
"2009-08-04 21:00:00",26.9400005341,0.0860000029206,93.5,-56.2000007629,8.03999996185,954.0,13.9099998474
"2009-08-04 22:00:00",25.7199993134,0.00600000005215,85.0999984741,-41.5,7.78999996185,447.5,13.0799999237
"2009-08-04 23:00:00",25.1900005341,0.00499999988824,82.3000030518,-42.2000007629,7.80999994278,276.799987793,12.8999996185
"2009-08-05 00:00:00",24.7900009155,0.00499999988824,80.5,-29.2000007629,7.57999992371,202.600006104,12.8800001144
"2009-08-05 01:00:00",24.2700004578,0.00499999988824,82.6999969482,-20.0,7.42999982834,108.099998474,12.8699998856
"2009-08-05 02:00:00",23.9300003052,0.00499999988824,85.9000015259,-15.3000001907,7.34000015259,50.5999984741,12.8500003815
"2009-08-05 03:00:00",23.4899997711,0.00499999988824,86.4000015259,-14.6000003815,7.32999992371,29.7999992371,12.8400001526
"2009-08-05 04:00:00",23.2700004578,0.00499999988824,86.6999969482,-14.3999996185,7.32999992371,18.1000003815,12.8199996948
"2009-08-05 05:00:00",22.8400001526,0.00499999988824,83.3000030518,-14.1999998093,7.32999992371,12.3999996185,12.8000001907
"2009-08-05 06:00:00",22.6900005341,0.00499999988824,100.0,-20.1000003815,7.42999982834,4.09999990463,12.779999733
"2009-08-05 07:00:00",22.5200004578,0.00499999988824,100.5,-16.2000007629,7.36000013351,-0.40000000596,12.75
"2009-08-05 08:00:00",22.4899997711,0.00499999988824,100.199996948,-20.2000007629,7.42999982834,-5.0,12.7299995422
"2009-08-05 09:00:00",22.4099998474,0.00499999988824,100.199996948,-17.6000003815,7.38999986649,-3.79999995232,12.6899995804
"2009-08-05 10:00:00",22.3899993896,0.00499999988824,100.300003052,-20.7000007629,7.44000005722,30.0,12.7100000381
"2009-08-05 11:00:00",22.5699996948,0.00499999988824,83.1999969482,-21.3999996185,7.44999980927,11.1999998093,12.720000267
"2009-08-05 12:00:00",22.8500003815,0.00499999988824,99.8000030518,-20.2000007629,7.42999982834,-4.90000009537,12.8299999237
"2009-08-05 13:00:00",23.3400001526,0.00499999988824,99.8000030518,-20.0,7.42999982834,-3.5,13.1000003815
"2009-08-05 14:00:00",24.2399997711,0.00499999988824,99.5,-19.6000003815,7.42000007629,-5.09999990463,13.4099998474
"2009-08-05 15:00:00",26.2999992371,0.00400000018999,98.4000015259,-19.2000007629,7.40999984741,-0.699999988079,13.7600002289
"2009-08-05 16:00:00",26.3199996948,0.00400000018999,98.5999984741,-9.80000019073,7.25,-6.0,13.029999733
"2009-08-05 17:00:00",26.6900005341,0.00300000002608,96.6999969482,0.800000011921,7.07000017166,8.60000038147,13.7600002289
"2009-08-05 18:00:00",25.8799991608,0.00200000009499,97.9000015259,-8.69999980927,7.23000001907,-5.09999990463,13.75
"2009-08-05 19:00:00",25.6399993896,0.00200000009499,98.4000015259,-11.6000003815,7.28000020981,-6.59999990463,13.779999733
"2009-08-05 20:00:00",25.6599998474,0.0010000000475,98.0999984741,-6.69999980927,7.19999980927,-7.0,13.8299999237
"2009-08-05 21:00:00",25.4899997711,0.0010000000475,98.4000015259,-6.09999990463,7.19000005722,-7.09999990463,13.8400001526
"2009-08-05 22:00:00",25.1299991608,0.0010000000475,98.6999969482,-9.60000038147,7.25,-7.0,13.0699996948
"2009-08-05 23:00:00",24.5699996948,0.0010000000475,99.1999969482,-12.3000001907,7.28999996185,-6.69999980927,12.9300003052
"2009-08-06 00:00:00",24.3099994659,0.00600000005215,96.4000015259,-41.4000015259,7.78999996185,44.5999984741,12.8999996185
"2009-08-06 01:00:00",24.2099990845,0.204999998212,90.6999969482,-34.4000015259,7.67000007629,185.100006104,12.8900003433
"2009-08-06 02:00:00",23.9300003052,0.00700000021607,85.4000015259,-26.7000007629,7.53999996185,181.0,12.8599996567
"2009-08-06 03:00:00",23.8299999237,0.240999996662,89.6999969482,-35.0999984741,7.69000005722,101.300003052,12.8500003815
"2009-08-06 04:00:00",23.6399993896,0.152999997139,90.0,-30.5,7.61000013351,72.4000015259,12.8299999237
"2009-08-06 05:00:00",23.4300003052,0.00600000005215,87.6999969482,-26.8999996185,7.55000019073,73.1999969482,12.8100004196
"2009-08-06 06:00:00",22.5200004578,0.00499999988824,86.3000030518,-39.5,7.76000022888,55.2000007629,12.7899999619
"2009-08-06 07:00:00",23.3099994659,0.122000001371,94.5999984741,-37.7000007629,7.73000001907,1446.0,12.7700004578
"2009-08-06 08:00:00",23.3099994659,0.122000001371,94.5999984741,-37.7000007629,7.73000001907,1446.0,12.75
"2009-08-06 09:00:00",23.0499992371,0.0810000002384,90.8000030518,-29.5,7.59000015259,217.0,12.7299995422
"2009-08-06 10:00:00",22.8700008392,0.00600000005215,88.5,-35.0,7.69000005722,155.100006104,12.6899995804
"2009-08-06 11:00:00",22.6700000763,0.00499999988824,89.5,-43.5,7.82999992371,77.5999984741,12.7100000381
"2009-08-06 12:00:00",22.7700004578,0.00499999988824,89.4000015259,-41.0,7.78999996185,35.5,12.7299995422
"2009-08-06 13:00:00",22.7000007629,0.00499999988824,91.0999984741,-49.5,7.94000005722,16.5,12.8900003433
"2009-08-06 14:00:00",22.8799991608,0.00499999988824,90.8000030518,-37.0,7.71999979019,14.1999998093,13.25
"2009-08-06 15:00:00",23.2600002289,0.00499999988824,92.8000030518,-23.2000007629,7.48000001907,10.1999998093,13.5500001907
"2009-08-06 16:00:00",23.8099994659,0.00499999988824,94.3000030518,-14.6000003815,7.32999992371,11.8999996185,13.9899997711
"2009-08-06 17:00:00",23.9400005341,0.00400000018999,92.5999984741,-5.09999990463,7.17000007629,16.1000003815,13.2600002289
"2009-08-06 18:00:00",23.9899997711,0.00400000018999,93.8000030518,1.89999997616,7.05000019073,25.0,13.9499998093
"2009-08-06 19:00:00",24.2800006866,0.00400000018999,92.1999969482,1.60000002384,7.05000019073,25.5,13.1800003052
"2009-08-06 20:00:00",24.3500003815,0.00300000002608,90.5,5.40000009537,6.98999977112,7.19999980927,13.1800003052
"2009-08-06 21:00:00",24.2999992371,0.00300000002608,71.4000015259,5.5,6.98999977112,19.0,13.9200000763
"2009-08-06 22:00:00",23.8600006104,0.00300000002608,99.0999984741,5.0,7.0,10.8999996185,13.0900001526
"2009-08-06 23:00:00",23.4099998474,0.00300000002608,99.6999969482,2.59999990463,7.03999996185,-6.5,12.9799995422
"2009-08-07 00:00:00",22.5200004578,0.00300000002608,100.300003052,2.79999995232,7.03000020981,-5.09999990463,12.9399995804
"2009-08-07 01:00:00",21.7999992371,0.00300000002608,100.699996948,0.0,7.07999992371,-3.5,12.9099998474
"2009-08-07 02:00:00",21.7800006866,0.00300000002608,100.300003052,-5.30000019073,7.17000007629,-5.40000009537,12.8900003433
"2009-08-07 03:00:00",21.5300006866,0.00300000002608,100.699996948,-4.90000009537,7.17000007629,-6.0,12.8800001144
"2009-08-07 04:00:00",21.1299991608,0.00300000002608,101.199996948,-2.0,7.11999988556,-2.0,12.8500003815
"2009-08-07 05:00:00",20.7700004578,0.00300000002608,101.199996948,-1.89999997616,7.11000013351,-3.70000004768,12.8299999237
"2009-08-07 06:00:00",20.4400005341,0.00300000002608,101.400001526,1.0,7.07000017166,-3.59999990463,12.8100004196
"2009-08-07 07:00:00",20.2199993134,0.00300000002608,101.400001526,1.0,7.07000017166,-3.09999990463,12.7899999619
"2009-08-07 08:00:00",19.9500007629,0.00300000002608,101.400001526,-1.79999995232,7.11000013351,-1.70000004768,12.7600002289
"2009-08-07 09:00:00",19.6299991608,0.00300000002608,101.699996948,1.10000002384,7.05999994278,-2.40000009537,12.7399997711
"2009-08-07 10:00:00",19.3999996185,0.00300000002608,101.699996948,-0.800000011921,7.09999990463,-6.69999980927,12.720000267
"2009-08-07 11:00:00",20.0799999237,0.00300000002608,101.400001526,-17.0,7.38000011444,-4.09999990463,12.720000267
"2009-08-07 12:00:00",20.7199993134,0.00300000002608,100.699996948,-17.0,7.38000011444,-4.30000019073,12.8400001526
"2009-08-07 13:00:00",21.8299999237,0.00300000002608,100.099998474,-15.8000001907,7.36000013351,-4.0,13.1700000763
"2009-08-07 14:00:00",22.4899997711,0.00200000009499,99.4000015259,0.899999976158,7.07000017166,-4.09999990463,13.4600000381
"2009-08-07 15:00:00",25.1900005341,0.0010000000475,97.5999984741,5.80000019073,6.98000001907,-5.30000019073,13.8500003815
"2009-08-07 16:00:00",26.5599994659,0.0,97.1999969482,19.0,6.76000022888,-5.80000019073,13.0699996948
"2009-08-07 17:00:00",27.2199993134,0.0,97.3000030518,31.8999996185,6.53999996185,-7.19999980927,13.0600004196
"2009-08-07 18:00:00",26.3500003815,0.0,98.5,30.8999996185,6.55000019073,-7.19999980927,13.0699996948
"2009-08-07 19:00:00",25.5599994659,0.0,98.8000030518,36.5,6.46000003815,-5.30000019073,13.0699996948
"2009-08-07 20:00:00",25.4599990845,0.0,98.5999984741,28.6000003815,6.59000015259,-5.5,13.0900001526
"2009-08-07 21:00:00",25.0100002289,0.0,98.9000015259,27.7999992371,6.59999990463,-7.0,13.1300001144
"2009-08-07 22:00:00",24.4500007629,0.0,93.5999984741,21.2999992371,6.71999979019,-0.5,13.0399999619
"2009-08-07 23:00:00",23.6000003815,0.0,99.3000030518,14.8999996185,6.82999992371,1.5,12.9399995804
"2009-08-08 00:00:00",22.9599990845,0.0010000000475,88.9000015259,11.3000001907,6.88999986649,0.0,12.9099998474
"2009-08-08 01:00:00",22.4099998474,0.0010000000475,100.400001526,5.69999980927,6.98000001907,-4.30000019073,12.8900003433
"2009-08-08 02:00:00",22.0499992371,0.0010000000475,100.5,2.90000009537,7.03000020981,8.30000019073,12.8800001144
"2009-08-08 03:00:00",21.7800006866,0.0010000000475,100.800003052,-0.10000000149,7.07999992371,-5.5,12.8500003815
"2009-08-08 04:00:00",21.4599990845,0.0010000000475,100.5,-2.29999995232,7.11999988556,-5.19999980927,12.8299999237
"2009-08-08 05:00:00",21.2299995422,0.0010000000475,100.900001526,-3.90000009537,7.15000009537,-5.40000009537,12.8000001907
"2009-08-08 06:00:00",21.1800003052,0.0010000000475,100.5,-6.69999980927,7.19999980927,-5.19999980927,12.7700004578
"2009-08-08 07:00:00",21.2600002289,0.00200000009499,100.400001526,-8.19999980927,7.23000001907,-5.59999990463,12.7399997711
"2009-08-08 08:00:00",20.9599990845,0.00200000009499,100.800003052,-8.10000038147,7.21999979019,-6.0,12.720000267
"2009-08-08 09:00:00",20.6399993896,0.00200000009499,101.199996948,-5.80000019073,7.17999982834,-6.90000009537,12.6999998093
"2009-08-08 10:00:00",20.7399997711,0.00200000009499,100.599998474,-12.3000001907,7.30000019073,-6.69999980927,12.6999998093
"2009-08-08 11:00:00",21.1200008392,0.00200000009499,100.800003052,-13.5,7.32000017166,-6.80000019073,12.6999998093
"2009-08-08 12:00:00",21.9599990845,0.00200000009499,100.699996948,-13.8999996185,7.32000017166,-7.0,12.8500003815
"2009-08-08 13:00:00",22.7299995422,0.00200000009499,100.199996948,-8.30000019073,7.23000001907,-6.90000009537,13.3400001526
"2009-08-08 14:00:00",23.1499996185,0.0010000000475,99.9000015259,-5.09999990463,7.17000007629,-7.09999990463,13.3900003433
"2009-08-08 15:00:00",24.6800003052,0.0,98.6999969482,7.90000009537,6.94999980927,-7.09999990463,13.6999998093
"2009-08-08 16:00:00",27.4400005341,0.0,96.0999984741,17.7000007629,6.78000020981,-7.40000009537,13.1000003815
"2009-08-08 17:00:00",27.1200008392,0.0,98.6999969482,27.2999992371,6.61999988556,-7.5,13.0500001907
"2009-08-08 18:00:00",27.8700008392,0.0,97.4000015259,27.0,6.61999988556,-7.5,13.029999733
"2009-08-08 19:00:00",26.9099998474,0.0,99.0999984741,28.7000007629,6.59000015259,-7.40000009537,13.0100002289
"2009-08-08 20:00:00",26.6299991608,0.0,98.6999969482,24.6000003815,6.65999984741,-7.40000009537,13.029999733
"2009-08-08 21:00:00",26.0200004578,0.0,99.5999984741,20.8999996185,6.71999979019,-7.40000009537,13.1599998474
"2009-08-08 22:00:00",25.7099990845,0.0,99.6999969482,11.8999996185,6.88000011444,-7.30000019073,13.0699996948
"2009-08-08 23:00:00",24.9500007629,0.0,100.300003052,6.30000019073,6.96999979019,-7.19999980927,12.9200000763
"2009-08-09 00:00:00",24.2000007629,0.0010000000475,100.5,2.40000009537,7.03999996185,-7.19999980927,12.8999996185
"2009-08-09 01:00:00",23.7399997711,0.0010000000475,100.699996948,-0.899999976158,7.09999990463,-7.09999990463,12.8800001144
"2009-08-09 02:00:00",23.2399997711,0.0010000000475,101.0,-3.59999990463,7.13999986649,-7.09999990463,12.8699998856
"2009-08-09 03:00:00",22.9400005341,0.0010000000475,100.900001526,-6.09999990463,7.19000005722,-7.09999990463,12.8500003815
"2009-08-09 04:00:00",22.8099994659,0.0010000000475,100.900001526,-7.09999990463,7.19999980927,-7.0,12.8299999237
"2009-08-09 05:00:00",22.6100006104,0.0010000000475,100.900001526,-6.80000019073,7.19999980927,-7.09999990463,12.8000001907
"2009-08-09 06:00:00",22.2000007629,0.0010000000475,101.300003052,-6.90000009537,7.19999980927,-7.0,12.779999733
"2009-08-09 07:00:00",21.8799991608,0.0010000000475,101.400001526,-7.30000019073,7.21000003815,-7.0,12.7399997711
"2009-08-09 08:00:00",21.5400009155,0.0010000000475,101.199996948,-10.3999996185,7.26000022888,-7.0,12.7299995422
"2009-08-09 09:00:00",21.2299995422,0.0010000000475,101.800003052,-10.5,7.26000022888,-7.0,12.6999998093
"2009-08-09 10:00:00",21.0799999237,0.0010000000475,101.599998474,-13.8000001907,7.32000017166,-7.0,12.6899995804
"2009-08-09 11:00:00",21.3500003815,0.0010000000475,101.400001526,-15.8999996185,7.36000013351,-6.90000009537,12.6899995804
"2009-08-09 12:00:00",22.1399993896,0.0010000000475,101.099998474,-16.2999992371,7.36000013351,-7.0,12.7899999619
"2009-08-09 13:00:00",23.6000003815,0.0010000000475,100.5,-12.8000001907,7.30000019073,-7.09999990463,13.1800003052
"2009-08-09 14:00:00",25.0599994659,0.0,100.400001526,-1.5,7.11000013351,-7.19999980927,13.4300003052
"2009-08-09 15:00:00",28.5699996948,0.0,99.6999969482,7.09999990463,6.96000003815,-7.5,13.7399997711
"2009-08-09 16:00:00",30.0900001526,0.0,93.0999984741,25.8999996185,6.63999986649,-3.0,13.0